Flag for U.S.A. Weather past 2 weeks in Tucson, Arizona, U.S.A.

Now
77 °F

Partly sunny.


Feels Like: 79 °F
Forecast: 71 / 89 °F
Wind: 8 mph from Southwest

Location: Davis-Monthan Air Force Base

Current Time: Sep 4, 2015 at 6:38:16 PM

Latest Report: Sep 4, 2015 at 5:58 PM


Visibility: 10 mi

Pressure: 29.85 "Hg (27.36 "Hg at 758m altitude)

Humidity: 67%

Dew point: 65 °F

Location of TucsonLocation

Historic Weather in Tucson — Graph

°F

Tucson temperature yesterday

Maximum temperature yesterday: 88 °F (at 11:58 AM)
Minimum temperature yesterday: 69 °F (at 5:58 PM)
Average temperature yesterday: 76 °F

Past Weeks' High & Low Weather Summary

 TemperatureHumidityPressure
High103 °F (Aug 29, 2:58 PM)100% (Sep 4, 1:03 AM)30.06 "Hg (Sep 4, 1:03 AM)
Low67 °F (Sep 4, 5:58 AM)19% (Aug 29, 2:58 PM)29.71 "Hg (Aug 21, 4:58 PM)
Average83 °F53%29.86 "Hg
* Reported Aug 20 4:58 PM — Sep 4 4:58 PM, Tucson, Weather by CustomWeather, © 2015

Note: Actual official high and low records may vary slightly from our data, if they occured in-between our weather recording intervals... More about our weather records

Advertising

Tucson weather history for previous 24 hours

 ConditionsComfort  
Time TempWeatherWind HumidityBarometerVisibility
4:58 PM
Fri, Sep 4
79 °FSunny.10 mph60%29.83 "Hg10 mi
3:58 PM80 °FPassing clouds.6 mph58%29.80 "Hg10 mi
2:58 PM81 °FSunny.1 mph50%29.82 "Hg10 mi
1:58 PM82 °FSunny.No wind47%29.83 "Hg10 mi
12:58 PM80 °FPassing clouds.2 mph51%29.83 "Hg10 mi
11:58 AM79 °FPassing clouds.5 mph54%29.85 "Hg10 mi
10:58 AM79 °FSunny.5 mph56%29.87 "Hg10 mi
9:58 AM78 °FSunny.6 mph56%29.87 "Hg10 mi
8:58 AM74 °FSunny.2 mph69%29.87 "Hg10 mi
7:58 AM72 °FSunny.6 mph74%29.87 "Hg10 mi
6:58 AM67 °FSunny.7 mph88%29.86 "Hg10 mi
5:58 AM67 °FClear.2 mph88%29.85 "Hg10 mi
4:58 AM67 °FClear.3 mph90%29.83 "Hg10 mi
3:58 AM67 °FClear.3 mph89%29.82 "Hg10 mi
2:58 AM67 °FClear.5 mph89%29.83 "Hg10 mi
1:58 AM68 °FClear.7 mph91%29.81 "Hg10 mi
1:03 AM68 °FClear.3 mph100%29.94 "Hg9 mi
11:58 PM
Thu, Sep 3
69 °FClear.2 mph89%29.82 "Hg10 mi
10:58 PM70 °FClear.8 mph85%29.83 "Hg10 mi
9:58 PM69 °FClear.7 mph96%29.84 "Hg10 mi
8:58 PM69 °FPassing clouds.2 mph91%29.84 "Hg10 mi
7:58 PM70 °FPassing clouds.6 mph83%29.84 "Hg10 mi
6:58 PM70 °FClear.7 mph88%29.86 "Hg10 mi
Weather by CustomWeather, © 2015

See weather overviewHow to use our weather pages